Location: Caltech
(34.1382°N, 118.1253°W)
Time: 04:35:22
(UTC-08:00)

Cosmos 1943 Rocket - Visible Passes

Search period start: 24 February 2017 00:00
Search period end: 06 March 2017 00:00
Orbit: 812 x 844 km, 71.0° (Epoch: 23 February)

Date Brightness Start Highest point End Pass type
(mag) Time Alt. Az. Time Alt. Az. Time Alt. Az.
24 Feb 4.4 03:09:50 20° ENE 03:09:50 20° ENE 03:11:54 10° NE visible
24 Feb 3.0 04:51:24 31° NW 04:51:24 31° NW 04:55:44 10° N visible
25 Feb 4.9 02:51:42 13° NE 02:51:42 13° NE 02:52:31 10° NE visible
25 Feb 3.2 04:33:16 30° NNW 04:33:16 30° NNW 04:36:42 10° N visible
26 Feb 3.5 04:15:00 26° NNW 04:15:00 26° NNW 04:17:39 10° N visible
27 Feb 3.9 03:56:39 21° N 03:56:39 21° N 03:58:34 10° N visible
28 Feb 4.3 03:38:13 17° N 03:38:13 17° N 03:39:29 10° NNE visible
01 Mar 4.6 03:19:43 13° NNE 03:19:43 13° NNE 03:20:22 10° NNE visible
02 Mar 4.9 03:01:10 10° NNE 03:01:10 10° NNE 03:01:14 10° NNE visible
